Regional Weather Roundup
Issued by NWS

Home | Current Version | Previous Version | Graphics & Text | Print | Product List | Glossary On
Versions: 1 2 3 4 5 6 7 8 9 10 11 12 13 14 15 16 17 18 19 20 21 22 23 24 25 26 27 28 29 30 31 32 33 34 35 36 37 38 39 40 41 42 43 44 45 46 47 48 49 50
000
ASUS43 KMPX 221401
RWRMN
WEATHER ROUNDUP FOR MINNESOTA
NATIONAL WEATHER SERVICE TWIN CITIES/CHANHASSEN MN
900 AM CDT SUN APR 22 2018


NOTE: "FAIR" INDICATES FEW OR NO CLOUDS BELOW 12,000 FEET WITH NO
SIGNIFICANT WEATHER AND/OR OBSTRUCTIONS TO VISIBILITY. N/A MEANS
CURRENT SKY AND/OR WEATHER CONDITIONS ARE NOT AVAILABLE.

MNZ060>063-068>070-221500-
   Twin Cities Metro

CITY           SKY/WX    TMP DP  RH WIND       PRES   REMARKS
TWIN CITIES    FAIR      48  35  60 E3        30.38S
ST PAUL        FAIR      45  35  68 CALM      30.39S
CRYSTAL        FAIR      48  32  53 CALM      30.37S
BLAINE         SUNNY     50  34  53 CALM      30.37S
LAKEVILLE      FAIR      39  36  87 CALM      30.37S
EDEN PRAIRIE   FAIR      48  33  56 E3        30.36F
SOUTH ST PAUL  FAIR      46  35  65 CALM      30.38S
LAKE ELMO      FAIR      46  32  57 CALM      30.39S
$$
MNZ001>005-007-008-013>017-022>024-027-028-221500-
   Northwest Minnesota

CITY           SKY/WX    TMP DP  RH WIND       PRES   REMARKS
BEMIDJI        FAIR      46  32  57 S7        30.29S
HALLOCK        FAIR      45  39  81 S20       30.18F
ROSEAU         FAIR      45  37  76 S14       30.22S
WARROAD        FAIR      46  37  71 S7        30.23F
THIEF RVR FALL FAIR      45  33  63 S15       30.26F
CROOKSTON      FAIR      45  36  70 S16       30.26S
FOSSTON        FAIR      45  30  57 S16       30.28S
DETROIT LAKES  FAIR      45  32  61 S6        30.30S
MOORHEAD       FAIR      43  36  75 S6        30.30R
PARK RAPIDS    FAIR      44  33  65 S7        30.30F
MAHNOMEN       FAIR      45  32  60 S15       30.28S
$$
MNZ006-009>011-018-025>026-221500-
   North Central Minnesota

CITY           SKY/WX    TMP DP  RH WIND       PRES   REMARKS
BAUDETTE       FAIR      46  32  58 S8        30.26S
FLAG ISLAND    FAIR      36  32  87 S13       30.21F
INTL FALLS     FAIR      48  31  51 SW6       30.30R
WASKISH        FAIR      46  34  61 W7        30.29S
BIG FORK       FAIR      46  34  61 S3        30.31S
LONGVILLE      FAIR      45  34  65 SE5       30.32S
GRAND RAPIDS   FAIR      43  28  55 SE7       30.35S
CRANE LAKE     FAIR      45  25  45 S5        30.34F
ORR            FAIR      45  21  39 CALM      30.30S
COOK           FAIR      48  30  49 SW6       30.33S
WALKER         FAIR      47  31  54 S7        30.30S
$$
MNZ012-019>021-037-221500-
   Northeast Minnesota

CITY           SKY/WX    TMP DP  RH WIND       PRES   REMARKS
DULUTH         FAIR      49  25  39 S6        30.36S
ELY            FAIR      45  21  39 CALM      30.34F
HIBBING        FAIR      41  22  46 SE3       30.34S
EVELETH        FAIR      42  23  47 CALM      30.35F
DULUTH HARBOR  FAIR      37  30  75 CALM      30.40R
TWO HARBORS    FAIR      50  34  53 CALM      30.35S
SILVER BAY     FAIR      46  23  39 CALM      30.35S
GRAND MARAIS     N/A     38  23  55 E5        30.38S
G MARAIS ARPRT FAIR      48  14  25 CALM      30.36S
$$
MNZ029>031-032-039>041-046>048-054>057-064-221500-
   West Central Minnesota

CITY           SKY/WX    TMP DP  RH WIND       PRES   REMARKS
FERGUS FALLS   FAIR      45  36  70 S13       30.28F
WHEATON        SUNNY     43  34  70 SE9       30.32S
MORRIS         SUNNY     43  37  81 SE9       30.31S
ALEXANDRIA     FAIR      49  35  58 S6        30.33S
ELBOW LAKE     FAIR      44  36  73 SE10      30.31S
WADENA         FAIR      43  36  75 CALM      30.31F
GLENWOOD       FAIR      45  37  76 S9        30.34R
APPLETON       CLOUDY    39  36  87 SE6       30.33S
BENSON         CLOUDY    43  36  75 S5        30.35S
ORTONVILLE     SUNNY     39  36  87 SE6       30.31S
MADISON        CLOUDY    41  36  81 SE6       30.32S
WILLMAR        FAIR      45  37  76 SE6       30.37S
$$
MNZ033>034-036-042>043-049>051-058-059-221500-
   Central Minnesota

CITY           SKY/WX    TMP DP  RH WIND       PRES   REMARKS
ST CLOUD       FAIR      43  34  70 S6        30.36S
SAUK CENTRE    FAIR      43  36  77 SE5       30.35R
PAYNESVILLE    FAIR      45  35  68 SE6       30.36S
AITKIN         FAIR      46  32  57 CALM      30.33S
PINE RIVER     FAIR      41  32  70 SE6       30.36R
BRAINERD       FAIR      48  33  56 SE5       30.35R
STAPLES        FAIR      43  34  70 S6        30.33S
LONG PRAIRIE   FAIR      43  34  70 CALM      30.34S
LITTLE FALLS   FAIR      45  28  53 CALM      30.35S
LITCHFIELD     FAIR      46  39  76 E3        30.36S
BUFFALO        FAIR      46  34  64 CALM      30.37F
MAPLE LAKE     FAIR      45  36  72 CALM      30.37F
HUTCHINSON     FAIR      44  38  79 E6        30.37S
$$
MNZ037-044-045-052-053-221500-
   East Central Minnesota

CITY           SKY/WX    TMP DP  RH WIND       PRES   REMARKS
PRINCETON      FAIR      48  34  57 SE3       30.37S
MORA           FAIR      39  27  60 CALM      30.38F
CAMBRIDGE      FAIR      48  30  49 CALM      30.38R
RUSH CITY      FAIR      42  31  64 CALM      30.38S
MOOSE LAKE     FAIR      41  25  52 CALM      30.35S
HINCKLEY       FAIR      43  28  56 CALM      30.38S
CLOQUET        FAIR      45  16  31 SE5       30.36S
MCGREGOR       FAIR      45  32  61 CALM      30.35F
$$
MNZ071>073-080-081-089-090-097-098-221500-
   Southwest Minnesota

CITY           SKY/WX    TMP DP  RH WIND       PRES   REMARKS
MONTEVIDEO     MOSUNNY   45  37  76 S3        30.33S
GRANITE FALLS  SUNNY     43  38  80 E3        30.35S
CANBY          MOSUNNY   41  35  77 SE3       30.33S
MARSHALL       SUNNY     43  34  70 S3        30.33S
REDWOOD FALLS  SUNNY     41  36  82 E6        30.34S
OLIVIA         SUNNY     45  36  70 E5        30.33F
PIPESTONE      SUNNY    N/A N/A N/A SE5       30.30S
WINDOM         MOSUNNY   43  27  52 CALM      30.33S
WORTHINGTON    SUNNY     38  34  85 NE3       30.33R
JACKSON        SUNNY     37  34  87 CALM      30.33S
TRACY          SUNNY     45  37  73 S3        30.32S
SLAYTON        SUNNY     39  34  81 CALM      30.32F
$$
MNZ065>067-074>077-082>085-091>093-221500-
   South Central Minnesota

CITY           SKY/WX    TMP DP  RH WIND       PRES   REMARKS
MANKATO        FAIR      45  36  70 CALM      30.36R
NEW ULM        SUNNY     43  34  70 E3        30.35S
ST JAMES       MOSUNNY   36  34  93 CALM      30.36S
FAIRMONT       CLOUDY    37  32  82 NE3       30.34S
GLENCOE        FAIR      45  35  70 CALM      30.35S
OWATONNA       FAIR      46  37  71 E3        30.36R
WASECA         FAIR      45  34  65 E3        30.37R
ALBERT LEA     FAIR      43  30  61 E3        30.35S
$$
MNZ078>079-086>088-094>096-221500-
   Southeast Minnesota

CITY           SKY/WX    TMP DP  RH WIND       PRES   REMARKS
ROCHESTER      FAIR      45  36  70 SE5       30.37R
RED WING       FAIR      45  32  61 SW3       30.37S
STANTON        FAIR      41  36  82 CALM      30.37R
DODGE CENTER   FAIR      46  36  66 E5        30.36S
WINONA         FAIR      43  36  75 SE3       30.37R
AUSTIN         FAIR      41  34  75 E5        30.35S
PRESTON        FAIR      41  33  72 CALM      30.37R
$$
ABBREVIATIONS USED IN REMARKS
   TC - TEMPERATURES IN CELSIUS
  WCI - WIND CHILL INDEX
   HX - HEAT INDEX
  VSB - VISIBILITY
$$




USA.gov is the U.S. government's official web portal to all federal, state and local government web resources and services.